This is the latest recevied weather packets stored in our database for station/object DB8NZ-22. If no packets are shown the sender has not sent any weather packets the latest 10 day(s).
| Time | Temp. | Humidity | Pressure | Rain* | Wind** | Luminosity | Snow |
|---|---|---|---|---|---|---|---|
| 1777899467 | 27.22° C | 29% | 1013.4 hPa | - | - | - | - |
| 1777898567 | 27.22° C | 30% | 1013.4 hPa | - | - | - | - |
| 1777897667 | 27.22° C | 29% | 1013.5 hPa | - | - | - | - |
| 1777896767 | 28.33° C | 28% | 1013.6 hPa | - | - | - | - |
| 1777895867 | 27.78° C | 28% | 1013.7 hPa | - | - | - | - |
| 1777894967 | 27.22° C | 29% | 1013.8 hPa | - | - | - | - |
| 1777894067 | 27.22° C | 29% | 1013.9 hPa | - | - | - | - |
| 1777893166 | 26.67° C | 29% | 1014 hPa | - | - | - | - |
| 1777892266 | 26.67° C | 30% | 1014.3 hPa | - | - | - | - |
| 1777891366 | 26.11° C | 30% | 1014.3 hPa | - | - | - | - |
| 1777890466 | 25.56° C | 31% | 1014.4 hPa | - | - | - | - |
| 1777889566 | 25° C | 31% | 1014.6 hPa | - | - | - | - |
| 1777888666 | 25° C | 32% | 1014.6 hPa | - | - | - | - |
| 1777887766 | 24.44° C | 32% | 1014.8 hPa | - | - | - | - |
| 1777886865 | 23.33° C | 34% | 1015 hPa | - | - | - | - |
| 1777885965 | 22.78° C | 35% | 1015.1 hPa | - | - | - | - |
| 1777885065 | 22.22° C | 35% | 1015.2 hPa | - | - | - | - |
| 1777884165 | 22.22° C | 36% | 1015.1 hPa | - | - | - | - |
| 1777883265 | 21.67° C | 37% | 1015.2 hPa | - | - | - | - |
| 1777882365 | 21.11° C | 40% | 1015.3 hPa | - | - | - | - |
| 1777881465 | 20.56° C | 41% | 1015.4 hPa | - | - | - | - |
| 1777880564 | 20° C | 41% | 1015.5 hPa | - | - | - | - |
| 1777879665 | 19.44° C | 44% | 1015.4 hPa | - | - | - | - |
| 1777878764 | 18.89° C | 45% | 1015.3 hPa | - | - | - | - |
| 1777877864 | 18.33° C | 45% | 1015.4 hPa | - | - | - | - |
* Rain since midnight (hover to see other rain measurements)
** Current wind speed in m/s (hover to see current wind gust speed)